| time (UTC) | temp F | wind direction | speed MPH | gust MPH | rain 1hr in | rain 24hr in | rain mn in | humidity % | barometer mb |
| 20260906133428 | 77 | 179 | 0.0 | 2.0 | 0.00 | 0.00 | 0.00 | 95 | 1006.6 |
| 20260906131527 | 78 | 135 | 0.0 | 0.0 | 0.00 | 0.00 | 0.00 | 95 | 1006.2 |
| 20260906130626 | 78 | 135 | 0.0 | 0.0 | 0.00 | 0.00 | 0.00 | 96 | 1006.2 |
| 20260906125626 | 77 | 135 | 0.0 | 0.0 | 0.00 | 0.00 | 0.00 | 97 | 1006.2 |
| 20260906124628 | 77 | 141 | 0.0 | 0.0 | 0.00 | 0.00 | 0.00 | 97 | 1006.2 |
| 20260906123629 | 76 | 135 | 0.0 | 0.0 | 0.00 | 0.00 | 0.00 | 97 | 1006.2 |
| 20260906122627 | 76 | 135 | 0.0 | 0.0 | 0.00 | 0.00 | 0.00 | 97 | 1005.9 |
| 20260906120627 | 76 | 135 | 0.0 | 0.0 | 0.00 | 0.00 | 0.00 | 95 | 1005.6 |
| 20260906114727 | 77 | 135 | 0.0 | 0.0 | 0.00 | 0.00 | 0.00 | 94 | 1005.2 |
| 20260906113728 | 77 | 135 | 0.0 | 0.0 | 0.00 | 0.00 | 0.00 | 94 | 1004.9 |
| 20260906111727 | 77 | 135 | 0.0 | 0.0 | 0.00 | 0.00 | 0.00 | 92 | 1004.7 |
| 20260906104826 | 78 | 135 | 0.0 | 0.0 | 0.00 | 0.00 | 0.00 | 92 | 1004.5 |
| 20260906103829 | 78 | 135 | 0.0 | 0.0 | 0.00 | 0.00 | 0.00 | 92 | 1004.8 |
| 20260906102827 | 78 | 157 | 0.0 | 0.0 | 0.00 | 0.00 | 0.00 | 92 | 1004.5 |
| 20260906101828 | 78 | 268 | 0.0 | 0.0 | 0.00 | 0.00 | 0.00 | 91 | 1004.5 |
| 20260906095826 | 78 | 158 | 1.0 | 4.0 | 0.00 | 0.00 | 0.00 | 91 | 1004.2 |
| 20260906094826 | 78 | 22 | 0.0 | 0.0 | 0.00 | 0.00 | 0.00 | 90 | 1004.5 |
| 20260906093827 | 79 | 273 | 0.0 | 4.0 | 0.00 | 0.00 | 0.00 | 90 | 1004.5 |
| 20260906092927 | 79 | 157 | 0.0 | 0.0 | 0.00 | 0.00 | 0.00 | 90 | 1004.5 |
| 20260906091027 | 79 | 157 | 0.0 | 1.0 | 0.00 | 0.00 | 0.00 | 89 | 1004.2 |
| 20260906090028 | 79 | 157 | 0.0 | 2.0 | 0.00 | 0.00 | 0.00 | 89 | 1004.2 |
| 20260906085126 | 79 | 187 | 0.0 | 2.0 | 0.00 | 0.00 | 0.00 | 88 | 1004.2 |
| 20260906083226 | 79 | 170 | 1.0 | 5.0 | 0.00 | 0.00 | 0.00 | 87 | 1004.2 |
| 20260906082226 | 79 | 140 | 0.0 | 1.0 | 0.00 | 0.00 | 0.00 | 87 | 1004.5 |
| 20260906081229 | 79 | 180 | 0.0 | 1.0 | 0.00 | 0.00 | 0.00 | 87 | 1004.5 |
| 20260906080226 | 79 | 180 | 1.0 | 3.0 | 0.00 | 0.00 | 0.00 | 86 | 1004.5 |
| 20260906072228 | 80 | 180 | 0.0 | 2.0 | 0.00 | 0.00 | 0.00 | 84 | 1004.9 |
| 20260906070325 | 80 | 161 | 2.0 | 5.0 | 0.00 | 0.00 | 0.00 | 84 | 1004.9 |
| 20260906065326 | 80 | 140 | 0.0 | 5.0 | 0.00 | 0.00 | 0.00 | 83 | 1004.9 |
| 20260906064327 | 81 | 147 | 0.0 | 5.0 | 0.00 | 0.00 | 0.00 | 82 | 1005.2 |
| 20260906063326 | 81 | 180 | 1.0 | 2.0 | 0.00 | 0.00 | 0.00 | 81 | 1005.6 |
| 20260906061327 | 81 | 182 | 2.0 | 5.0 | 0.00 | 0.00 | 0.00 | 81 | 1005.2 |
| 20260906060426 | 81 | 156 | 2.0 | 7.0 | 0.00 | 0.00 | 0.00 | 79 | 1005.2 |
| 20260906055425 | 82 | 158 | 1.0 | 4.0 | 0.00 | 0.00 | 0.00 | 79 | 1005.2 |
| 20260906054426 | 82 | 180 | 2.0 | 3.0 | 0.00 | 0.00 | 0.00 | 78 | 1005.2 |
| 20260906053426 | 82 | 180 | 0.0 | 2.0 | 0.00 | 0.00 | 0.00 | 78 | 1005.2 |
| 20260906052427 | 82 | 157 | 0.0 | 0.0 | 0.00 | 0.00 | 0.00 | 77 | 1005.2 |
| 20260906051426 | 82 | 112 | 0.0 | 0.0 | 0.00 | 0.00 | 0.00 | 77 | 1005.2 |
| 20260906050525 | 82 | 157 | 0.0 | 0.0 | 0.00 | 0.00 | 0.00 | 76 | 1005.2 |
| 20260906045537 | 82 | 187 | 1.0 | 5.0 | 0.00 | 0.00 | 0.00 | 76 | 1005.2 |
| 20260906044538 | 83 | 135 | 0.0 | 0.0 | 0.00 | 0.00 | 0.00 | 74 | 1005.2 |
| 20260906043537 | 83 | 179 | 1.0 | 4.0 | 0.00 | 0.00 | 0.00 | 74 | 1005.2 |
| 20260906042538 | 83 | 180 | 0.0 | 0.0 | 0.00 | 0.00 | 0.00 | 74 | 1005.2 |
| 20260906041536 | 83 | 180 | 0.0 | 6.0 | 0.00 | 0.00 | 0.00 | 73 | 1004.9 |
| 20260906040535 | 83 | 180 | 0.0 | 0.0 | 0.00 | 0.00 | 0.00 | 72 | 1004.9 |
| 20260906035537 | 84 | 157 | 0.0 | 0.0 | 0.00 | 0.00 | 0.00 | 73 | 1004.9 |
| 20260906033634 | 84 | 196 | 0.0 | 3.0 | 0.00 | 0.00 | 0.00 | 71 | 1004.9 |
| 20260906032637 | 84 | 153 | 1.0 | 5.0 | 0.00 | 0.00 | 0.00 | 68 | 1004.9 |
| 20260906031735 | 85 | 180 | 0.0 | 0.0 | 0.00 | 0.00 | 0.00 | 65 | 1004.7 |
| 20260906030735 | 85 | 179 | 0.0 | 2.0 | 0.00 | 0.00 | 0.00 | 65 | 1004.5 |
| 20260906025735 | 85 | 112 | 0.0 | 2.0 | 0.00 | 0.00 | 0.00 | 64 | 1004.1 |
| 20260906024737 | 86 | 112 | 1.0 | 3.0 | 0.00 | 0.00 | 0.00 | 63 | 1003.6 |
| 20260906023735 | 86 | 109 | 2.0 | 4.0 | 0.00 | 0.00 | 0.00 | 62 | 1003.1 |
| 20260906022738 | 86 | 99 | 0.0 | 3.0 | 0.00 | 0.00 | 0.00 | 61 | 1002.8 |
| 20260906021736 | 87 | 157 | 0.0 | 0.0 | 0.00 | 0.00 | 0.00 | 61 | 1002.6 |
| 20260906020737 | 87 | 135 | 0.0 | 2.0 | 0.00 | 0.00 | 0.00 | 60 | 1002.4 |
| 20260906014836 | 87 | 102 | 1.0 | 4.0 | 0.00 | 0.00 | 0.00 | 59 | 1002.4 |
| 20260906013835 | 87 | 104 | 1.0 | 3.0 | 0.00 | 0.00 | 0.00 | 58 | 1002.4 |
| 20260906012836 | 87 | 90 | 0.0 | 0.0 | 0.00 | 0.00 | 0.00 | 56 | 1002.4 |
| 20260906011834 | 88 | 90 | 0.0 | 0.0 | 0.00 | 0.00 | 0.00 | 55 | 1002.4 |
| 20260906010834 | 88 | 112 | 1.0 | 3.0 | 0.00 | 0.00 | 0.00 | 54 | 1002.4 |
| 20260906005836 | 89 | 135 | 1.0 | 3.0 | 0.00 | 0.00 | 0.00 | 54 | 1002.1 |
| 20260906004835 | 90 | 67 | 0.0 | 0.0 | 0.00 | 0.00 | 0.00 | 52 | 1002.1 |
| 20260906003934 | 92 | 146 | 3.0 | 5.0 | 0.00 | 0.00 | 0.00 | 49 | 1001.4 |
| 20260906002034 | 93 | 67 | 0.0 | 2.0 | 0.00 | 0.00 | 0.00 | 45 | 1001.4 |
| 20260906001038 | 94 | 90 | 1.0 | 4.0 | 0.00 | 0.00 | 0.00 | 44 | 1001.1 |
| 20260906000037 | 94 | 90 | 1.0 | 3.0 | 0.00 | 0.00 | 0.00 | 43 | 1001.1 |
| 20260905235035 | 95 | 90 | 2.0 | 5.0 | 0.00 | 0.00 | 0.00 | 42 | 1000.7 |
| 20260905234034 | 96 | 67 | 1.0 | 3.0 | 0.00 | 0.00 | 0.00 | 41 | 1000.7 |
| 20260905232036 | 98 | 71 | 2.0 | 5.0 | 0.00 | 0.00 | 0.00 | 40 | 1000.7 |
| 20260905231134 | 97 | 67 | 0.0 | 0.0 | 0.00 | 0.00 | 0.00 | 41 | 1000.7 |
| 20260905224135 | 99 | 205 | 4.0 | 6.0 | 0.00 | 0.00 | 0.00 | 38 | 1000.4 |
| 20260905223134 | 99 | 116 | 1.0 | 3.0 | 0.00 | 0.00 | 0.00 | 37 | 1000.4 |
| 20260905222234 | 99 | 112 | 0.0 | 0.0 | 0.00 | 0.00 | 0.00 | 40 | 1000.4 |
| 20260905221234 | 100 | 180 | 0.0 | 2.0 | 0.00 | 0.00 | 0.00 | 38 | 1000.4 |
| 20260905214334 | 99 | 155 | 0.0 | 2.0 | 0.00 | 0.00 | 0.00 | 39 | 1000.7 |
| 20260905213335 | 99 | 180 | 0.0 | 1.0 | 0.00 | 0.00 | 0.00 | 38 | 1000.4 |
| 20260905212434 | 99 | 90 | 0.0 | 0.0 | 0.00 | 0.00 | 0.00 | 37 | 1000.7 |
| 20260905211434 | 100 | 139 | 1.0 | 3.0 | 0.00 | 0.00 | 0.00 | 38 | 1000.7 |
| 20260905210435 | 98 | 157 | 0.0 | 2.0 | 0.00 | 0.00 | 0.00 | 38 | 1000.7 |
| 20260905205534 | 98 | 67 | 1.0 | 3.0 | 0.00 | 0.00 | 0.00 | 38 | 1001.4 |
| 20260905204537 | 96 | 31 | 2.0 | 5.0 | 0.00 | 0.00 | 0.00 | 39 | 1001.4 |
| 20260905203634 | 98 | 112 | 0.0 | 0.0 | 0.00 | 0.00 | 0.00 | 37 | 1001.4 |
| 20260905202637 | 98 | 151 | 0.0 | 4.0 | 0.00 | 0.00 | 0.00 | 39 | 1002.1 |
| 20260905201733 | 96 | 359 | 2.0 | 4.0 | 0.00 | 0.00 | 0.00 | 39 | 1002.1 |
| 20260905200736 | 97 | 143 | 0.0 | 2.0 | 0.00 | 0.00 | 0.00 | 41 | 1002.3 |
| 20260905195752 | 95 | 180 | 1.0 | 5.0 | 0.00 | 0.00 | 0.00 | 41 | 1002.6 |
| 20260905194735 | 94 | 89 | 2.0 | 4.0 | 0.00 | 0.00 | 0.00 | 42 | 1002.6 |
| 20260905193736 | 96 | 90 | 0.0 | 3.0 | 0.00 | 0.00 | 0.00 | 42 | 1002.6 |
| 20260905192734 | 96 | 135 | 2.0 | 4.0 | 0.00 | 0.00 | 0.00 | 41 | 1002.8 |
| 20260905191735 | 95 | 348 | 0.0 | 5.0 | 0.00 | 0.00 | 0.00 | 42 | 1003.0 |
| 20260905190734 | 95 | 46 | 3.0 | 5.0 | 0.00 | 0.00 | 0.00 | 43 | 1003.3 |
| 20260905185736 | 93 | 176 | 2.0 | 6.0 | 0.00 | 0.00 | 0.00 | 45 | 1003.7 |
| 20260905184835 | 94 | 135 | 0.0 | 0.0 | 0.00 | 0.00 | 0.00 | 45 | 1003.8 |
| 20260905183934 | 93 | 320 | 3.0 | 9.0 | 0.00 | 0.00 | 0.00 | 46 | 1003.8 |
| 20260905182034 | 94 | 163 | 0.0 | 3.0 | 0.00 | 0.00 | 0.00 | 48 | 1004.2 |
| 20260905180135 | 92 | 112 | 0.0 | 0.0 | 0.00 | 0.00 | 0.00 | 51 | 1004.9 |
| 20260905175135 | 93 | 163 | 1.0 | 5.0 | 0.00 | 0.00 | 0.00 | 49 | 1005.2 |
| 20260905174134 | 93 | 144 | 0.0 | 2.0 | 0.00 | 0.00 | 0.00 | 50 | 1005.6 |
| 20260905173135 | 92 | 120 | 0.0 | 2.0 | 0.00 | 0.00 | 0.00 | 51 | 1005.6 |
| 20260905172135 | 93 | 197 | 1.0 | 4.0 | 0.00 | 0.00 | 0.00 | 51 | 1005.6 |
| 20260905171136 | 91 | 292 | 0.0 | 2.0 | 0.00 | 0.00 | 0.00 | 54 | 1005.9 |
| 20260905170134 | 91 | 152 | 2.0 | 4.0 | 0.00 | 0.00 | 0.00 | 52 | 1005.9 |
| 20260905165133 | 91 | 229 | 4.0 | 9.0 | 0.00 | 0.00 | 0.00 | 56 | 1005.6 |
| 20260905164136 | 90 | 135 | 0.0 | 0.0 | 0.00 | 0.00 | 0.00 | 58 | 1006.2 |
| 20260905162234 | 90 | 180 | 0.0 | 4.0 | 0.00 | 0.00 | 0.00 | 59 | 1006.2 |
| 20260905160333 | 88 | 180 | 0.0 | 1.0 | 0.00 | 0.00 | 0.00 | 69 | 1006.2 |
| 20260905155335 | 86 | 170 | 2.0 | 5.0 | 0.00 | 0.00 | 0.00 | 71 | 1006.2 |
| 20260905154337 | 84 | 182 | 1.0 | 5.0 | 0.00 | 0.00 | 0.00 | 77 | 1006.6 |
| 20260905153336 | 83 | 292 | 0.0 | 1.0 | 0.00 | 0.00 | 0.00 | 80 | 1006.9 |
| 20260905152433 | 83 | 181 | 2.0 | 8.0 | 0.00 | 0.00 | 0.00 | 82 | 1006.9 |
| 20260905151434 | 82 | 180 | 2.0 | 4.0 | 0.00 | 0.00 | 0.00 | 85 | 1006.9 |
| 20260905150436 | 81 | 180 | 0.0 | 2.0 | 0.00 | 0.00 | 0.00 | 89 | 1006.9 |
| 20260905145534 | 80 | 270 | 0.0 | 0.0 | 0.00 | 0.00 | 0.00 | 92 | 1006.9 |
| 20260905144633 | 80 | 163 | 1.0 | 4.0 | 0.00 | 0.00 | 0.00 | 94 | 1006.9 |
| 20260905143634 | 80 | 180 | 0.0 | 1.0 | 0.00 | 0.00 | 0.00 | 96 | 1006.9 |
| 20260905142634 | 80 | 161 | 0.0 | 2.0 | 0.00 | 0.00 | 0.00 | 96 | 1006.9 |
| 20260905141634 | 79 | 180 | 0.0 | 1.0 | 0.00 | 0.00 | 0.00 | 97 | 1006.9 |
| 20260905140635 | 79 | 135 | 0.0 | 0.0 | 0.00 | 0.00 | 0.00 | 97 | 1006.9 |
| 20260905135734 | 78 | 145 | 1.0 | 5.0 | 0.00 | 0.00 | 0.00 | 96 | 1006.9 |
| 20260905134733 | 78 | 180 | 1.0 | 3.0 | 0.00 | 0.00 | 0.00 | 95 | 1006.9 |